TimePST,TemperatureF,Dew PointF,Humidity,Sea Level PressureIn,VisibilityMPH,Wind Direction,Wind SpeedMPH,Gust SpeedMPH,PrecipitationIn,Events,Conditions,WindDirDegrees,DateUTC
12:53 AM,34.0,30.0,85,30.09,10.0,Calm,Calm,-,N/A,,Clear,0,2013-02-10 08:53:00
1:53 AM,34.0,30.9,89,30.07,10.0,Calm,Calm,-,N/A,,Clear,0,2013-02-10 09:53:00
2:53 AM,30.9,28.0,89,30.07,10.0,Calm,Calm,-,N/A,,Clear,0,2013-02-10 10:53:00
3:53 AM,32.0,28.9,88,30.06,10.0,Calm,Calm,-,N/A,,Clear,0,2013-02-10 11:53:00
5:53 AM,30.9,28.0,89,30.09,10.0,Calm,Calm,-,N/A,,Clear,0,2013-02-10 13:53:00
6:53 AM,28.9,25.0,85,30.11,10.0,Calm,Calm,-,N/A,,Clear,0,2013-02-10 14:53:00
7:53 AM,30.9,28.9,92,30.11,10.0,Calm,Calm,-,N/A,,Scattered Clouds,0,2013-02-10 15:53:00
8:53 AM,36.0,33.1,89,30.11,10.0,Calm,Calm,-,N/A,,Scattered Clouds,0,2013-02-10 16:53:00
9:53 AM,43.0,36.0,76,30.10,10.0,Calm,Calm,-,N/A,,Scattered Clouds,0,2013-02-10 17:53:00
10:53 AM,50.0,36.0,59,30.09,10.0,Calm,Calm,-,N/A,,Partly Cloudy,0,2013-02-10 18:53:00
11:53 AM,54.0,37.0,53,30.07,10.0,Calm,Calm,-,N/A,,Clear,0,2013-02-10 19:53:00
12:53 PM,-9999,-9999,N/A,30.04,-9999.0,North,-9999.0,-,N/A,,Unknown,0,2013-02-10 20:53:00
1:53 PM,-9999,-9999,N/A,30.02,-9999.0,Calm,Calm,-,N/A,,Unknown,0,2013-02-10 21:53:00
1:55 PM,-9999,-9999,N/A,30.02,10.0,Calm,Calm,-,N/A,,Clear,0,2013-02-10 21:55:00
2:53 PM,64.0,37.0,37,29.99,10.0,SSW,5.8,-,N/A,,Clear,210,2013-02-10 22:53:00
3:53 PM,64.0,32.0,30,29.99,10.0,WSW,9.2,-,N/A,,Clear,250,2013-02-10 23:53:00
4:53 PM,60.1,33.1,36,30.00,10.0,SW,4.6,-,N/A,,Clear,230,2013-02-11 00:53:00
5:53 PM,52.0,37.0,57,30.01,10.0,SE,8.1,-,N/A,,Scattered Clouds,140,2013-02-11 01:53:00
6:53 PM,48.9,36.0,61,30.03,10.0,SSE,4.6,-,N/A,,Mostly Cloudy,150,2013-02-11 02:53:00
7:53 PM,45.0,36.0,71,30.03,10.0,Calm,Calm,-,N/A,,Clear,0,2013-02-11 03:53:00
8:53 PM,43.0,36.0,76,30.05,10.0,Calm,Calm,-,N/A,,Clear,0,2013-02-11 04:53:00
9:53 PM,37.0,33.1,86,30.06,10.0,NNW,4.6,-,N/A,,Clear,330,2013-02-11 05:53:00
10:53 PM,39.9,34.0,79,30.06,10.0,WNW,9.2,-,N/A,,Clear,300,2013-02-11 06:53:00
11:53 PM,37.9,34.0,86,30.08,10.0,Calm,Calm,-,N/A,,Clear,0,2013-02-11 07:53:00